This demonstration page uses our WeatherBlox Daily Observations layout. Learn more.

Left ArrowRight Arrow

39.51506, -84.39828

Hourly Observations for January 19, 2015

Temp ( °F °C ) Dew Point ( °F °C ) Humidity (%) Winds ( mph kmh ) Pressure ( in mb ) Visibility ( mi km ) Precip ( " mm )
12:15 am 00:15 Clear 32 0.2 28 -2 85 85 WSW 5 7 30.06 1018 10 16 0.00 0.00
12:35 am 00:35 Clear 31 -0.7 27 -2.9 85 85 Calm 30.09 1019 10 16 0.00 0.00
12:55 am 00:55 Clear 31 -0.5 28 -2.4 87 87 Calm 30.06 1018 10 16 0.00 0.00
1:15 am 01:15 Clear 29 -1.5 26 -3.3 88 88 Calm 30.06 1018 10 16 0.00 0.00
1:35 am 01:35 Clear 32 0 28 -2 87 87 Calm 30.06 1018 10 16 0.00 0.00
1:55 am 01:55 Clear 29 -1.5 26 -3.5 86 86 Calm 30.06 1018 10 16 0.00 0.00
2:15 am 02:15 Clear 32 -0.2 28 -2.2 87 87 Calm 30.09 1019 10 16 0.00 0.00
2:35 am 02:35 Clear 29 -1.5 26 -3.3 88 88 Calm 30.09 1019 10 16 0.00 0.00
2:55 am 02:55 Clear 29 -1.5 26 -3.3 88 88 Calm 30.09 1019 7 11 0.00 0.00
3:15 am 03:15 Clear with Mist and Fog 29 -1.5 26 -3.2 88 88 Calm 30.09 1019 3 5 0.00 0.00
3:35 am 03:35 Clear with Mist and Fog 29 -1.5 26 -3.1 89 89 Calm 30.09 1019 4 6 0.00 0.00
3:55 am 03:55 Clear 29 -1.5 26 -3.1 89 89 NE 3 6 30.09 1019 7 11 0.00 0.00
4:15 am 04:15 Clear 29 -1.5 26 -3.1 89 89 Calm 30.09 1019 7 11 0.00 0.00
4:35 am 04:35 Clear 29 -1.5 26 -3.1 89 89 Calm 30.06 1018 7 11 0.00 0.00
4:55 am 04:55 Clear 29 -1.5 26 -3.1 89 89 Calm 30.06 1018 7 11 0.00 0.00
5:15 am 05:15 Clear 29 -1.5 26 -3.1 89 89 NNE 3 6 30.06 1018 7 11 0.00 0.00
5:35 am 05:35 Clear 27 -3 24 -4.7 88 88 Calm 30.06 1018 7 11 0.00 0.00
5:55 am 05:55 Clear with Mist and Fog 29 -1.9 26 -3.5 89 89 Calm 30.06 1018 5 8 0.00 0.00
6:15 am 06:15 Partly Cloudy 26 -3.4 23 -5.1 88 88 Calm 30.09 1019 7 11 0.00 0.00
6:35 am 06:35 Mostly Cloudy with Mist and Fog 27 -2.8 24 -4.5 88 88 Calm 30.09 1019 2 3 0.00 0.00
6:55 am 06:55 Mostly Cloudy with Freezing Fog 27 -2.8 24 -4.5 88 88 Calm 30.09 1019 0 0 0.00 0.00
7:15 am 07:15 Clear with Mist and Fog 27 -2.8 24 -4.5 88 88 Calm 30.09 1019 3 5 0.00 0.00
7:35 am 07:35 Clear 27 -2.8 24 -4.5 88 88 Calm 30.09 1019 7 11 0.00 0.00
7:55 am 07:55 Sunny with Mist and Fog 27 -2.8 24 -4.5 88 88 Calm 30.09 1019 4 6 0.00 0.00
8:15 am 08:15 Mostly Cloudy with Freezing Fog 24 -4.3 21 -6 88 88 Calm 30.09 1019 1 1 0.00 0.00
8:35 am 08:35 Sunny with Mist and Fog 27 -2.8 24 -4.5 88 88 Calm 30.09 1019 4 6 0.00 0.00
8:55 am 08:55 Sunny 29 -1.5 26 -3.2 88 88 Calm 30.09 1019 7 11 0.00 0.00
9:15 am 09:15 Sunny 29 -1.5 26 -3.2 88 88 Calm 30.09 1019 7 11 0.00 0.00
9:35 am 09:35 Sunny with Mist and Fog 30 -0.9 27 -2.6 88 88 Calm 30.09 1019 5 8 0.00 0.00
9:55 am 09:55 Sunny 34 1 31 -0.5 90 90 Calm 30.09 1019 7 11 0.00 0.00
10:15 am 10:15 Sunny 34 1.2 32 -0.2 91 91 Calm 30.09 1019 7 11 0.00 0.00
10:35 am 10:35 Sunny 37 2.6 33 0.8 88 88 Calm 30.09 1019 7 11 0.00 0.00
10:55 am 10:55 Sunny 39 4 34 1.2 82 82 Calm 30.09 1019 10 16 0.00 0.00
11:15 am 11:15 Sunny 40 4.4 32 0.2 74 74 SW 3 6 30.09 1019 10 16 0.00 0.00
11:35 am 11:35 Sunny 42 5.5 32 0.2 69 69 WSW 5 7 30.06 1018 10 16 0.00 0.00
11:55 am 11:55 Sunny 42 5.8 32 -0.1 66 66 SW 8 13 30.03 1017 10 16 0.00 0.00
12:15 pm 12:15 Sunny 43 6.3 31 -0.7 61 61 SSW 8 13 30.03 1017 10 16 0.00 0.00
12:35 pm 12:35 Sunny 44 6.8 30 -1 58 58 SSW 6 9 30.03 1017 10 16 0.00 0.00
12:55 pm 12:55 Sunny 44 6.9 31 -0.8 58 58 SW 8 13 30.00 1016 10 16 0.00 0.00
1:15 pm 13:15 Sunny 47 8.2 32 -0.1 56 56 WSW 5 7 30.00 1016 10 16 0.00 0.00
1:35 pm 13:35 Sunny 47 8.2 32 -0.2 56 56 SW 6 9 30.00 1016 10 16 0.00 0.00
1:55 pm 13:55 Sunny 49 9.6 32 0.1 52 52 S 3 6 29.97 1015 10 16 0.00 0.00
2:15 pm 14:15 Sunny 49 9.6 32 -0.2 51 51 Calm 29.97 1015 10 16 0.00 0.00
2:35 pm 14:35 Sunny 49 9.6 29 -1.7 46 46 Calm 29.97 1015 10 16 0.00 0.00
2:55 pm 14:55 Sunny 49 9.6 29 -1.6 46 46 Calm 29.94 1014 10 16 0.00 0.00
3:15 pm 15:15 Sunny 49 9.6 28 -2.3 44 44 Calm 29.94 1014 10 16 0.00 0.00
3:35 pm 15:35 Sunny 49 9.6 27 -2.6 43 43 S 3 6 29.97 1015 10 16 0.00 0.00
3:55 pm 15:55 Sunny 49 9.6 28 -2.5 43 43 Calm 29.97 1015 10 16 0.00 0.00
4:15 pm 16:15 Sunny 49 9.6 27 -2.6 43 43 Calm 29.94 1014 10 16 0.00 0.00
4:35 pm 16:35 Partly Cloudy 49 9.6 26 -3.3 40 40 Calm 29.94 1014 10 16 0.00 0.00
4:55 pm 16:55 Cloudy 49 9.6 29 -1.8 45 45 Calm 29.94 1014 10 16 0.00 0.00
5:15 pm 17:15 Mostly Cloudy 49 9.6 28 -2.5 43 43 Calm 29.97 1015 10 16 0.00 0.00
5:35 pm 17:35 Partly Cloudy 49 9.6 29 -1.7 46 46 Calm 29.97 1015 10 16 0.00 0.00
5:55 pm 17:55 Clear 42 5.5 27 -2.6 56 56 Calm 29.97 1015 10 16 0.00 0.00
6:15 pm 18:15 Clear 39 4 30 -1.1 70 70 Calm 29.97 1015 10 16 0.00 0.00
6:35 pm 18:35 Clear 39 3.8 30 -1 71 71 N 3 6 29.97 1015 10 16 0.00 0.00
6:55 pm 18:55 Clear 37 2.6 29 -1.5 75 75 Calm 30.00 1016 10 16 0.00 0.00
7:15 pm 19:15 Clear 34 1.2 28 -2 79 79 Calm 30.00 1016 10 16 0.00 0.00
7:35 pm 19:35 Clear 34 1.2 29 -1.8 81 81 Calm 30.00 1016 10 16 0.00 0.00
7:55 pm 19:55 Clear 34 1.2 29 -1.6 82 82 Calm 30.00 1016 10 16 0.00 0.00
8:15 pm 20:15 Clear 34 1.2 29 -1.5 82 82 Calm 29.97 1015 10 16 0.00 0.00
8:35 pm 20:35 Clear 34 1.2 29 -1.4 83 83 NNE 3 6 29.97 1015 10 16 0.00 0.00
8:55 pm 20:55 Clear 33 0.6 28 -2 83 83 NNE 3 6 29.97 1015 10 16 0.00 0.00
9:15 pm 21:15 Clear 34 1.2 30 -1.3 84 84 N 3 6 29.97 1015 10 16 0.00 0.00
9:35 pm 21:35 Clear 34 1.2 30 -1.3 84 84 N 5 7 29.97 1015 10 16 0.00 0.00
9:55 pm 21:55 Clear 33 0.4 29 -1.9 85 85 Calm 29.97 1015 10 16 0.00 0.00
10:15 pm 22:15 Clear 32 0 28 -2.3 85 85 ENE 3 6 29.97 1015 10 16 0.00 0.00
10:35 pm 22:35 Clear 32 0 28 -2.3 85 85 N 3 6 29.97 1015 10 16 0.00 0.00
10:55 pm 22:55 Clear 32 0 28 -2.1 86 86 NNE 3 6 29.97 1015 10 16 0.00 0.00
11:15 pm 23:15 Clear 34 1.2 31 -0.8 87 87 ENE 3 6 29.97 1015 10 16 0.00 0.00
11:35 pm 23:35 Partly Cloudy 34 1.2 30 -1 85 85 Calm 30.00 1016 10 16 0.00 0.00
11:55 pm 23:55 Mostly Cloudy 34 1.2 30 -1 85 85 NE 5 7 29.97 1015 10 16 0.00 0.00

Powered by AerisWeather